944  
ASUS41 KBOX 220810  
RWRBOX  
 
REGIONAL WEATHER ROUNDUP  
NATIONAL WEATHER SERVICE BOSTON/NORTON MA  
400 AM EDT FRI JUN 22 2018  
 
NOTE: "FAIR" INDICATES FEW OR NO CLOUDS BELOW 12,000 FEET WITH NO  
SIGNIFICANT WEATHER AND/OR S TO VISIBILITY
.  
 
MAZALL-220900-  
EASTERN MASSACHUSETTS  
 
CITY SKY/WX TMP DP RH WIND PRES REMARKS
 
BOSTON FAIR 61 50 67 N14 29.94S  
BEVERLY FAIR 57 49 74 N8 29.95R  
LAWRENCE FAIR 57 46 66 N6 29.97S  
BEDFORD FAIR 54 52 93 N3 29.94S  
BLUE HILL N/A 57 53 86 NE14 29.94R  
NORWOOD FAIR 50 48 93 SE3 29.94R  
MARSHFIELD FAIR 61 61 100 CALM 29.93S  
PLYMOUTH FAIR 61 60 97 NE8 29.93S  
TAUNTON FAIR 52 51 97 CALM 29.93R FOG  
NEW BEDFORD FAIR 59 59 100 N5 29.92R  

 
 
MAZALL-220900-  
CAPE COD AND THE ISLANDS  
 
CITY SKY/WX TMP DP RH WIND PRES REMARKS
 
FALMOUTH FOG 61 61 100 N7 29.93S VSB 1/4  
HYANNIS CLOUDY 64 62 93 N5 29.91R  
CHATHAM CLOUDY 62 61 96 NE3 29.93R FOG  
PROVINCETOWN LGT RAIN 58 58 100 E9 29.94R VSB 3/4  
NANTUCKET CLOUDY 61 59 93 N3 29.92R  
MARTHAS VNYRD CLOUDY 61 61 100 N6 29.92R  

 
 
MAZALL-220900-  
CENTRAL AND WESTERN MASSACHUSETTS  
 
CITY SKY/WX TMP DP RH WIND PRES REMARKS
 
WORCESTER FAIR 57 42 57 N8 29.97R  
FITCHBURG FAIR 55 46 71 CALM 29.97S  
ORANGE FAIR 49 46 90 CALM 29.99R  
SPRINGFIELD FAIR 53 43 68 N8 29.96R  
WESTFIELD FAIR 56 44 64 N8 29.97R  
NORTH ADAMS NOT AVBL  
PITTSFIELD FAIR 51 44 77 CALM 29.98R  

 
 
RIZALL-220900-  
RHODE ISLAND  
 
CITY SKY/WX TMP DP RH WIND PRES REMARKS
 
PROVIDENCE FAIR 60 56 86 N5 29.94R  
NEWPORT FAIR 62 59 90 N5 29.92R  
BLOCK ISLAND CLOUDY 61 61 100 NE6 29.93R  
SMITHFIELD FAIR 58 53 84 N10 29.95R  
WESTERLY CLOUDY 64 64 100 NE5 29.93R FOG  

 
 
CTZALL-220900-  
CONNECTICUT  
 
CITY SKY/WX TMP DP RH WIND PRES REMARKS
 
BRADLEY INTL FAIR 59 43 55 N8 29.96R  
HARTFORD FAIR 63 46 54 N8 29.94R  
BRIDGEPORT CLOUDY 63 63 100 SE5 29.93R FOG  
DANBURY FAIR 64 60 87 NE5 29.95R  
GROTON CLOUDY 65 62 90 N6 29.91R  
NEW HAVEN FAIR 63 62 97 N3 29.93R  
CHESTER FOG 63 63 100 N3 29.93S VSB 1/4  
MERIDEN FAIR 63 44 50 N6 29.93R  
WILLIMANTIC FAIR 61 58 90 N5 29.94R  
OXFORD FAIR 62 44 51 NE9 29.95R  

 
 
MEZ002-015-021-024-NHZ003-005-008-011-012-014-VTZ005-008-220900-  
NORTHERN NEW ENGLAND  
 
CITY SKY/WX TMP DP RH WIND PRES REMARKS
 
PORTLAND ME FAIR 53 43 68 VRB6 29.98R  
BANGOR ME FAIR 46 42 86 CALM 30.00R  
CONCORD NH FAIR 46 43 89 E3 29.98S  
MANCHESTER NH FAIR 58 43 57 N7 29.96R  
NASHUA NH FAIR 53 46 77 NW6 29.97S  
PORTSMOUTH NH CLEAR 57 42 56 N9 29.96R  
JAFFREY NH FAIR 48 45 89 CALM 29.99R  
KEENE NH FAIR 44 42 93 SW5 30.00R  
BURLINGTON VT FAIR 48 43 82 E3 30.00R  
MT. WASHINGTON CLEAR 41 5 22 W10 N/A  

 
 
NYZ052-076-220900-  
EASTERN NEW YORK  
 
CITY SKY/WX TMP DP RH WIND PRES REMARKS
 
ALBANY FAIR 50 42 74 NW3 29.99R  
NEW YORK CITY MOCLDY 69 64 84 E9 29.90R  

 
 
ANZALL-220900-  
MARINE OBSERVATIONS  
 
STATION/POSITION TIME TEMP WIND PRES VSBY WAVE
 
AIR SEA DIR/SP/G HT/PER  
(UTC) (F) (DEG/KT/KT) (MB) (MI) (FT/S)  
BOSTON BUOY 0750 62 63 20/ 12/ 14 1013.6R 1/ 7  
BUZZARDS BAY 0700 61 40/ 3/ 3 1013.5R  
NANTUCKET SOUND 0750 63 66 50/ 8/ 10 1012.9R 0  
MASS BAY-STELLWA 0704 58 60 1012.2R 1/ 8  
ISLE OF SHOALS 0800 59 20/ 18/ 20 1013.9R  
S OF BLOCK IS 0743 62 N/A 2/ 5  

 
   
.....................KEY......................
 
 
SKY/WX - SKY CONDITION/PRESENT WEATHER  
TMP - TEMPERATURE IN FAHRENHEIT  
DWPT - DEWPOINT IN FAHRENHEIT  
RH - RELATIVE HUMIDITY IN PERCENT  
WIND - DIRECTION AND SPEED IN MPH  
PRES - MEAN SEA LEVEL PRESSURE IN INCHES OF HG  
WCI - WIND CHILL INDEX  
VSB - VISIBILITY IN MILES  
HX - HEAT INDEX  
TC - TEMPERATURE IN CELSIUS  
VRB - VARIABLE WIND DIRECTION  
N/A - NOT AVAILABLE  
 
 
CLICK HERE TO GO TO PREVIOUS BULLETINS.

The Nexlab MA Page
The Nexlab RI Page
The Nexlab NH Page
The Nexlab CT Page Main Text Page